Baudette, MN

2:51 PM CDT on August 20, 2017 (GMT -0500)
Baudette International

Weather History for KBDE - December, 2012

Change the Weather History Date:

Saturday, December 1, 2012

  Actual Average Record
Temperature  
Mean Temperature 32 °F -  
Max Temperature 35 °F 26 °F 54 °F (1962)
Min Temperature 28 °F 7 °F -25 °F (1978)
Degree Days  
Heating Degree Days 34    
Moisture  
Dew Point 32 °F    
Average Humidity 93    
Maximum Humidity 100    
Minimum Humidity 88    
Precipitation  
Precipitation 0.08 in - - ()
Sea Level Pressure  
Sea Level Pressure 29.78 in    
Wind  
Wind Speed 6 mph (SSW)    
Max Wind Speed 10 mph    
Max Gust Speed 22 mph    
Visibility 3 miles    
Events Fog    
Averages and records for this station are not official NWS values.
T = Trace of Precipitation, MM = Missing Value Source: NWS Daily Summary

Daily Weather History Graph

Daily Weather History Graph

Search for Another Location

Airport or City:

Trip Planner

Search our weather history database for the weather conditions in past years. The results will help you decide how hot, cold, wet, or windy it might be!

Date:

Astronomy

Dec. 01, 2012 Rise Set
Actual Time 7:50 AM CST 4:24 PM CST
Civil Twilight 7:14 AM CST 5:00 PM CST
Nautical Twilight 6:34 AM CST 5:40 PM CST
Astronomical Twilight 5:56 AM CST 6:18 PM CST
Moon 7:19 PM CST (12/1) 10:00 AM CST (12/1)
Length of Visible Light 9h 46m
Length of Day
8h 33m
Waning Gibbous, 91% of the Moon is Illuminated
Dec 1
Waning Gibbous
Dec 6
Last Quarter
Dec 13
New
Dec 19
First Quarter
Dec 28
Full

Hourly Weather History & Observations

Time (CST) Temp. Windchill Dew Point Humidity Pressure Visibility Wind Dir Wind Speed Gust Speed Precip Events Conditions
12:53 AM 28.9 °F 21.1 °F 27.0 °F 92% 29.93 in 6.0 mi SSE 8.1 mph 16.1 mph N/A   Overcast
1:53 AM 30.0 °F 22.4 °F 27.0 °F 88% 29.90 in 6.0 mi SE 8.1 mph 16.1 mph N/A   Overcast
2:53 AM 30.2 °F 21.3 °F 28.4 °F 93% 29.81 in 5.0 mi SE 10.4 mph - N/A   Overcast
3:53 AM 30.0 °F 21.1 °F 28.9 °F 96% 29.82 in 5.0 mi SE 10.4 mph 21.9 mph N/A   Overcast
4:53 AM 30.9 °F 23.5 °F 28.9 °F 92% 29.79 in 5.0 mi SSE 8.1 mph 16.1 mph N/A   Overcast
5:53 AM 32.0 °F 25.6 °F 30.0 °F 92% 29.79 in 5.0 mi SSE 6.9 mph - N/A   Overcast
6:53 AM 33.1 °F 27.7 °F 30.9 °F 92% 29.77 in 4.0 mi SSE 5.8 mph - N/A   Overcast
7:53 AM 33.1 °F 26.9 °F 30.9 °F 92% 29.76 in 4.0 mi SSE 6.9 mph - 0.02 in   Overcast
8:29 AM 33.8 °F 27.0 °F 32.0 °F 93% 29.71 in 2.5 mi South 8.1 mph - 0.01 in   Overcast
8:53 AM 34.0 °F 27.2 °F 32.0 °F 92% 29.75 in 2.5 mi South 8.1 mph - 0.03 in   Overcast
9:53 AM 34.0 °F 28.0 °F 32.0 °F 92% 29.76 in 2.5 mi South 6.9 mph - 0.03 in   Overcast
10:53 AM 35.6 °F 29.2 °F 33.8 °F 93% 29.71 in 2.0 mi South 8.1 mph - N/A   Overcast
11:53 AM 35.1 °F 29.3 °F 33.1 °F 92% 29.75 in 2.0 mi South 6.9 mph - N/A   Overcast
12:53 PM 35.6 °F 30.7 °F 33.8 °F 93% 29.69 in 2.0 mi South 5.8 mph - N/A   Overcast
1:53 PM 35.1 °F 31.0 °F 33.1 °F 92% 29.74 in 2.0 mi South 4.6 mph - N/A   Overcast
2:19 PM 35.6 °F 32.8 °F 33.8 °F 93% 29.69 in 2.0 mi South 3.5 mph - N/A   Overcast
2:32 PM 35.6 °F 32.8 °F 33.8 °F 93% 29.70 in 1.8 mi SSW 3.5 mph - N/A   Overcast
2:53 PM 35.1 °F - 33.1 °F 92% 29.74 in 1.8 mi Calm Calm - N/A   Overcast
3:26 PM 35.6 °F - 33.8 °F 93% 29.70 in 1.8 mi Calm Calm - N/A   Overcast
3:53 PM 35.1 °F - 33.1 °F 92% 29.76 in 1.8 mi Calm Calm - N/A   Overcast
4:04 PM 35.6 °F 32.8 °F 33.8 °F 93% 29.72 in 2.5 mi SW 3.5 mph - N/A   Overcast
4:30 PM 35.6 °F - 33.8 °F 93% 29.74 in 3.0 mi Calm Calm - N/A   Overcast
4:53 PM 35.1 °F 28.6 °F 32.0 °F 89% 29.79 in 3.0 mi NW 8.1 mph - N/A   Overcast
5:06 PM 33.8 °F 27.7 °F 32.0 °F 93% 29.74 in 3.0 mi NW 6.9 mph - N/A   Overcast
5:25 PM 33.8 °F 27.7 °F 32.0 °F 93% 29.74 in 2.5 mi NW 6.9 mph - N/A   Overcast
5:41 PM 33.8 °F 29.6 °F 32.0 °F 93% 29.75 in 3.0 mi Variable 4.6 mph - N/A   Overcast
5:53 PM 34.0 °F 28.0 °F 32.0 °F 92% 29.79 in 4.0 mi NW 6.9 mph - N/A   Overcast
6:53 PM 34.0 °F 28.0 °F 32.0 °F 92% 29.80 in 4.0 mi NW 6.9 mph - N/A   Overcast
7:53 PM 33.1 °F - 32.0 °F 96% 29.82 in 3.0 mi Calm Calm - N/A   Overcast
8:03 PM 33.8 °F - 32.0 °F 93% 29.78 in 2.5 mi Calm Calm - N/A   Overcast
8:15 PM 33.8 °F - 32.0 °F 93% 29.78 in 1.8 mi Calm Calm - N/A   Overcast
8:26 PM 33.8 °F - 32.0 °F 93% 29.78 in 1.2 mi Calm Calm - N/A   Overcast
8:34 PM 33.8 °F - 32.0 °F 93% 29.78 in 1.2 mi Calm Calm - N/A   Overcast
8:53 PM 33.1 °F - 32.0 °F 96% 29.83 in 1.0 mi Calm Calm - N/A   Overcast
9:04 PM 33.8 °F - 32.0 °F 93% 29.79 in 1.2 mi Calm Calm - N/A   Overcast
9:18 PM 33.8 °F - 32.0 °F 93% 29.79 in 0.8 mi Calm Calm - N/A   Overcast
9:53 PM 33.1 °F 30.0 °F 33.1 °F 100% 29.85 in 0.2 mi WNW 3.5 mph - N/A Fog Fog
10:53 PM 33.1 °F 30.0 °F 33.1 °F 100% 29.86 in 0.2 mi WNW 3.5 mph - N/A Fog Fog
11:53 PM 32.0 °F 27.5 °F 32.0 °F 100% 29.86 in 0.5 mi NNW 4.6 mph - N/A Fog Fog